Regional Weather Roundup
Issued by NWS Midland/Odessa, TX

Skip options and go directly to product.
Home | Oldest Version | Next Version | Current Version | All | Text Only | Save Text | Print | Product List | Glossary On

Skip product version selection by date and time.   
413
ASUS44 KMAF 261301
RWRMAF
MIDLAND AREA WEATHER ROUNDUP
NATIONAL WEATHER SERVICE MIDLAND TX
800 AM CDT SUN JUN 26 2016

...IN SOUTHWEST TEXAS AND SOUTHEAST NEW MEXICO...

CITY           SKY/WX    TMP DP  RH WIND       PRES   REMARKS
ALPINE         CLOUDY    71  62  72 S5        30.22R
ANDREWS        FAIR      71  68  90 SE5       30.16R
ARTESIA        CLOUDY    70  68  94 CALM      30.15R
BIG SPRING     CLOUDY    70  61  73 E8        30.16R
CARLSBAD       SUNNY     72  62  71 SE6       30.13R
DRYDEN           N/A     74  71  91 E9        30.08R
FORT STOCKTON  SUNNY     72  65  78 SE18      30.10R
GUAD PASS      MOSUNNY   66  59  78 NE31        N/A
HOBBS          SUNNY     70  64  83 SE12      30.18R
MARFA          CLOUDY   N/A N/A N/A NW6       30.21R
MIDLAND AIRPK  CLOUDY    74  67  76 SE7       30.13R
MIDLAND INTL   CLOUDY    75  64  68 SE13      30.13R
ODESSA         CLOUDY    74  64  71 MISG      30.14R
PECOS          MOSUNNY   71  63  73 E10       30.08R
PRESIDIO       FAIR      76  62  61 N10       30.07R
SEMINOLE       CLOUDY    71  64  81 E5        30.18R
SNYDER           N/A     73  70  91 SE9       30.16R
WINK           PTSUNNY   72  64  76 SE17      30.09R
$$
...OTHER STATIONS IN TEXAS...

CITY           SKY/WX    TMP DP  RH WIND       PRES   REMARKS
ABILENE        MOSUNNY   74  71  91 S12       30.10S
AMARILLO       CLOUDY    68  60  75 NW9       30.16R
AUSTIN         CLOUDY    77  76  96 CALM      30.11R FOG
BROWNSVILLE    SUNNY     81  75  82 SE7       30.03S
CORPUS CHRISTI CLOUDY    81  78  91 SE6       30.06R
DALLAS FTW     PTSUNNY   82  74  76 S10       30.10R
DEL RIO        CLOUDY    74  69  85 SE8       30.04R
EL PASO        MOSUNNY   74  54  49 CALM      30.11R
HOUSTON INT    MOSUNNY   83  77  82 CALM      30.11R
LUBBOCK        PTSUNNY   70  66  87 S10       30.17R
SAN ANGELO     LGT RAIN  72  69  90 E6        30.14R
SAN ANTONIO    CLOUDY    78  74  87 SE6       30.11R
WACO           MOSUNNY   77  74  90 MISG      30.12R
WICHITA FALLS  NOT AVBL
$$
...OTHER LOCATIONS IN NEW MEXICO...

CITY           SKY/WX    TMP DP  RH WIND       PRES   REMARKS
ALAMAGORDO     SUNNY     68  54  60 E5        30.15R
ALBUQUERQUE    CLOUDY    72  52  49 E21       30.25R
CANNON AFB     CLOUDY    70  61  72 E8        30.22R
CLOVIS         CLOUDY    66  57  72 N7        30.22R
HOLLOMAN AFB   MOSUNNY   69  55  60 NE2       30.12R
ROSWELL        MOSUNNY   70  58  65 NW6       30.15R
RUIDOSO          N/A     59  48  67 SW5       30.37R
SANTA FE       SUNNY     64  49  57 S6        30.35R
TRUTH OR CONSE CLOUDY    72  52  49 NE3       30.17R
TUCUMCARI      CLOUDY    67  64  90 N6        30.22R
$$

USA.gov is the U.S. government's official web portal to all federal, state and local government web resources and services.